Tracking 31023 objects as of 19-Jul-2025
HD Live streaming from Space Station
objects crossing your sky now

SYRACUSE 3B

Track SYRACUSE 3B now!
SYRACUSE 3B is classified as:


NORAD ID: 29273
Int'l Code: 2006-033B
Perigee: 35,775.7 km
Apogee: 35,811.6 km
Inclination: 2.0 °
Period: 1,436.1 minutes
Semi major axis: 42164 km
RCS: 25.7711 m2 (large)
Launch date: August 11, 2006
Source: France (FR)
Launch site: FRENCH GUIANA (FRGUI)

Syracuse 3B is a French military geostationary satellite. It carries four spot beams in SHF frequencies and two spot beams in EHF frequencies.
Your satellite tracking list
Your tracking list is empty




NASA's NSSDC Master Catalog

Two Line Element Set (TLE):
1 29273U 06033B   25199.55743821  .00000025  00000-0  00000-0 0  9993
2 29273   2.0403  84.3755 0004256  72.0361 344.1147  1.00272037 69339
Source of the keplerian elements: AFSPC